Location: Unspecified
(0.0000°N, 0.0000°E)
Time: 15:40:38
(UTC+00:00)

STARLINK-36321 - Pass Details

Date: 04 March 2026
Orbit: 270 x 271 km, 53.2° (Epoch: 6 March)

Event Time Altitude Azimuth Distance (km) Brightness Sun altitude
Rises 19:02:26 0° 219° (SW) 1,849 6.1 -12.6°
Reaches altitude 10° 19:04:19 10° 223° (SW) 1,048 4.8 -13.1°
Maximum altitude 19:06:36 58° 303° (WNW) 309 1.6 -13.7°
Enters shadow 19:07:57 21° 19° (NNE) 667 2.8 -14.0°
